Kosmos-2307

operational
NORAD ID: 23511 Int'l Des: 1995-009 Owner: VKS Country: RU
MEOCIRCULAR

Über Kosmos-2307

Beschreibung wird geladen...

Live-Position

3D-Globus wird geladen...

Nächste Überflüge

Höhenverlauf

Altitude vs Time

uPlot chart will show altitude changes over time

Zweizeiliger Elementsatz

1 23511U 95009A 25258.31570172 -.00000031 00000-0 00000-0 0 9998
2 23511 64.1990 310.9807 0005333 143.6346 223.5686 2.13105192237347
Epoch: 15. Sept. 2025 • Age: 30 hours

Aktueller Status

Höhe 19157.7 km
Geschwindigkeit 3.95 km/s
Subsatellitenpunkt -61.11°S, 12.27°W
Startdatum 7. März 1995
Alter 30.5 years
Typ other

Technische Details

Klassifizierung Payload
Masse 1300.00 kg
Trockenmasse 1200.00 kg
Gesamtmasse 1300.00 kg
Länge 4.00 m
Durchmesser 1.50 m
Spannweite 7.80 m
Form Cyl + Ant + 2 Pan
Hersteller POL
Bus-Typ Uragan
Phasenstatus In Orbit
Besitzer/Staat VKS/RU

Große Konstellationen

Loading constellations...